[[{"header":{"parameterUnit":"m.s-1","parameterCategory":1,"la1":30.2991,"la2":30.254,"lo1":-89.0895,"lo2":-89.0444,"dx":0.0017,"dy":0.0017,"nx":28,"ny":28,"refTime":"2022-12-24T09:00:00:Z","depth":0,"parameterNumber":2,"parameterNumberName":"U-component_of_WINDS"},"data":[0,0,0,0,0,0,0,0,0,0,0,0,0,0,0,0,0,0,0,0,0,0,0,0,0,0,0,0,0,0,0,0,0,0,0,0,0,0,0,0,0,0,0,0,0,0,0,0,0,0,0,0,0,0,0,0,0,0,0.2222,0.2221,0,0.2161,0.216,0.216,0.2176,0.2177,0.2178,0.2179,0.2113,0.211,0.2107,0,0,0,0,0,0,0,0,0,0,0,0,0,0.235,0.2348,0.2222,0.2221,0.2221,0.2161,0.216,0.2159,0.2175,0.2177,0.2178,0.218,0.2114,0.2111,0.2107,0,0,0,0,0,0,0,0,0,0,0,0,0,0.2292,0.2347,0.2222,0.2221,0.2221,0.2161,0.216,0.2159,0.2175,0.2177,0.2179,0.218,0.2115,0.2111,0.2107,0.2043,0,0,0.2093,0.2091,0,0,0,0,0,0,0,0,0.2296,0.2288,0.2222,0.2221,0.2221,0.2178,0.2181,0.212,0.2175,0.2192,0.2179,0.2181,0.2133,0.2127,0.2112,0.204,0.2037,0.2093,0.209,0.2088,0.2087,0,0,0,0,0,0,0,0.23,0.229,0.2198,0.2221,0.222,0.2223,0.2217,0.217,0.2153,0.2191,0.2192,0.2185,0.2133,0.2116,0.211,0.2036,0.2093,0.2089,0.2086,0.2085,0.191,0.1908,0,0,0,0,0,0,0.2305,0.2294,0.22,0.2196,0.2264,0.222,0.2213,0.219,0.2153,0.215,0.2183,0.2186,0.2122,0.2115,0.2108,0.203,0.2088,0.2084,0.2082,0.1912,0.1909,0.1907,0,0,0,0,0,0,0.2307,0.2296,0.2202,0.2245,0.2233,0.2216,0.2189,0.2187,0.217,0.2148,0.2145,0.2169,0.2123,0.2114,0.2059,0.2028,0.2082,0.2078,0.1914,0.1911,0.1908,0.1875,0,0,0,0,0,0,0.2311,0.2297,0.2273,0.2244,0.2231,0.2155,0.2188,0.2185,0.2163,0.2166,0.2134,0.213,0.2124,0.2066,0.2055,0.2023,0.2075,0.1917,0.1913,0.1909,0.1879,0.1872,0.1865,0,0,0,0,0,0.2316,0.2265,0.2272,0.226,0.2201,0.2153,0.2146,0.2141,0.2161,0.2136,0.2122,0.2131,0.2034,0.206,0.2048,0.2015,0.1918,0.1914,0.1909,0.1882,0.1873,0.1865,0,0,0,0,0,0,0.2289,0.2262,0.2268,0.2208,0.2183,0.2156,0.2125,0.2131,0.2099,0.2103,0.2098,0.209,0.2034,0.202,0.2049,0.1951,0.1979,0.1972,0.1963,0.1954,0.1947,0.195,0.2071,0,0,0,0,0,0.2277,0.2241,0.2219,0.2168,0.2155,0.2142,0.2121,0.212,0.2094,0.2083,0.2065,0.2038,0.2001,0.1977,0.1943,0.1878,0.1871,0.185,0.1843,0.1837,0.183,0.1794,0.1784,0.1892,0.1892,0.1892,0,0,0.2249,0.223,0.2208,0.2162,0.2143,0.2105,0.2133,0.2092,0.2064,0.2076,0.2023,0.2009,0.1979,0.1919,0.1892,0.1905,0.1799,0.1831,0.1827,0.1823,0.1789,0.1778,0.1769,0.1889,0.1889,0.189,0,0,0.2181,0.2163,0.2118,0.2099,0.207,0.2062,0.2052,0.2024,0.2016,0.1963,0.1972,0.1939,0.1876,0.1854,0.1835,0.176,0.1767,0.1749,0.1712,0.1677,0.1669,0.1661,0.1633,0.1623,0.1743,0.1743,0.1743,0,0.215,0.2095,0.2094,0.2053,0.2032,0.2044,0.1998,0.1979,0.194,0.1924,0.1941,0.1863,0.1844,0.1779,0.1761,0.1745,0.1732,0.1751,0.167,0.1663,0.1656,0.1629,0.1618,0.1741,0.1741,0.1741,0.1742,0,0.2058,0.202,0.1987,0.195,0.1926,0.1883,0.1875,0.1851,0.1853,0.1843,0.1789,0.1767,0.1728,0.1713,0.1714,0.1648,0.1657,0.1672,0.1699,0.1643,0.1618,0.1608,0.1738,0.1739,0.1739,0.174,0,0,0.1967,0.1933,0.1921,0.1904,0.1874,0.1844,0.1802,0.1765,0.1744,0.1717,0.168,0.1629,0.1643,0.1621,0.162,0.159,0.1531,0.1608,0.1607,0.1593,0.1456,0.1444,0.1432,0.1537,0.1535,0.1534,0.1458,0,0.1894,0.182,0.1819,0.175,0.1715,0.1727,0.169,0.1667,0.1658,0.1625,0.1615,0.1578,0.16,0.1586,0.1558,0.1544,0.1503,0.155,0.1501,0.1499,0.1505,0.1419,0.1405,0.1335,0.1448,0.1447,0.1446,0,0.1798,0.177,0.1698,0.1674,0.1659,0.1626,0.1592,0.1562,0.1537,0.1533,0.1509,0.1513,0.1469,0.1501,0.1439,0.1471,0.1452,0.1443,0.144,0.1433,0.1467,0.1407,0.1312,0.1301,0.143,0.1432,0.1433,0,0.1737,0.1682,0.1631,0.1617,0.1588,0.1565,0.1551,0.1528,0.1507,0.1478,0.1464,0.143,0.141,0.1384,0.1378,0.1402,0.1317,0.1348,0.131,0.131,0.1289,0.129,0.1187,0.1281,0.1281,0.1281,0.1281,0,0.1654,0.1609,0.1603,0.1572,0.1522,0.1522,0.1472,0.1461,0.1441,0.1407,0.1416,0.1384,0.138,0.1347,0.1343,0.1292,0.1284,0.1278,0.1277,0.1276,0.1276,0.1261,0.1264,0.1278,0.1279,0.1279,0.128,0,0.1576,0.1571,0.1516,0.1495,0.1488,0.1452,0.1433,0.1403,0.1396,0.1353,0.1343,0.1331,0.1293,0.1286,0.1241,0.1238,0.1177,0.1182,0.1185,0.1185,0.1147,0.115,0.1029,0.1012,0.1119,0.1118,0.1117,0,0.1522,0.1488,0.1463,0.1442,0.1428,0.1393,0.1372,0.1371,0.1348,0.1318,0.1292,0.1255,0.1225,0.1163,0.115,0.1115,0.1118,0.1078,0.1112,0.1112,0.1115,0.1116,0.1112,0.107,0.1069,0.1068,0.1067,0,0.1426,0.1425,0.1395,0.1363,0.1337,0.1312,0.1288,0.127,0.1267,0.1241,0.1202,0.1179,0.1134,0.1097,0.1063,0.1049,0.1056,0.1058,0.1047,0.1043,0.1046,0.1042,0.1165,0.1059,0.106,0.1061,0.1061,0.1061,0.1356,0.1327,0.1305,0.127,0.1253,0.1231,0.1202,0.1192,0.116,0.1124,0.1126,0.1083,0.106,0.1016,0.1,0.0966,0.0979,0.0964,0.0959,0.0955,0.095,0.1054,0.0961,0.0961,0.0961,0.0961,0.0961,0,0.1259,0.1247,0.1215,0.1182,0.1155,0.1168,0.1143,0.1119,0.1082,0.106,0.1032,0.0988,0.0952,0.0938,0.0903,0.0879,0.0881,0.0869,0.0869,0.0866,0.0942,0.0954,0.0867,0.0867,0.0867,0.0868,0.0868,0.0868,0.1205,0.1155,0.1152,0.1094,0.1082,0.1041,0.1026,0.1005,0.0988,0.0939,0.091,0.0902,0.0883,0.0847,0.0815,0.0812,0.0797,0.0783,0.0781,0.0851,0.0861,0.0869,0.0881,0.078,0.078,0.0707,0.0707,0.0706]},{"header":{"parameterUnit":"m.s-1","parameterCategory":1,"la1":30.2991,"la2":30.254,"lo1":-89.0895,"lo2":-89.0444,"dx":0.0017,"dy":0.0017,"nx":28,"ny":28,"refTime":"2022-12-24T09:00:00:Z","depth":0,"parameterNumber":3,"parameterNumberName":"V-component_of_WINDS"},"data":[0,0,0,0,0,0,0,0,0,0,0,0,0,0,0,0,0,0,0,0,0,0,0,0,0,0,0,0,0,0,0,0,0,0,0,0,0,0,0,0,0,0,0,0,0,0,0,0,0,0,0,0,0,0,0,0,0,0,-6.6197,-6.6199,0,-6.6383,-6.6385,-6.6388,-6.6305,-6.63,-6.6296,-6.6291,-6.6477,-6.6486,-6.6495,0,0,0,0,0,0,0,0,0,0,0,0,0,-6.5762,-6.577,-6.6196,-6.6199,-6.6201,-6.6383,-6.6386,-6.6388,-6.6306,-6.63,-6.6295,-6.6289,-6.6474,-6.6484,-6.6495,0,0,0,0,0,0,0,0,0,0,0,0,0,-6.595,-6.5773,-6.6196,-6.6182,-6.6183,-6.6382,-6.6386,-6.6389,-6.6307,-6.63,-6.6293,-6.6287,-6.647,-6.6483,-6.6497,-6.672,0,0,-6.6539,-6.6545,0,0,0,0,0,0,0,0,-6.5939,-6.5966,-6.6182,-6.6183,-6.6185,-6.6314,-6.63,-6.6499,-6.6309,-6.626,-6.6291,-6.6283,-6.6428,-6.6444,-6.6494,-6.6728,-6.6736,-6.654,-6.6549,-6.6555,-6.6559,0,0,0,0,0,0,0,-6.5926,-6.5957,-6.627,-6.6185,-6.6187,-6.6164,-6.6183,-6.6337,-6.638,-6.6263,-6.6258,-6.6281,-6.6427,-6.6481,-6.6498,-6.6739,-6.654,-6.6552,-6.6561,-6.6566,-6.7163,-6.717,0,0,0,0,0,0,-6.5914,-6.5947,-6.6264,-6.6276,-6.6043,-6.6178,-6.6199,-6.6279,-6.6378,-6.6386,-6.6287,-6.6277,-6.6461,-6.6482,-6.6504,-6.6771,-6.6555,-6.6568,-6.6575,-6.7155,-6.7164,-6.7173,0,0,0,0,0,0,-6.5905,-6.5943,-6.6257,-6.611,-6.6148,-6.6193,-6.6283,-6.6286,-6.6341,-6.6396,-6.6402,-6.6335,-6.6457,-6.6485,-6.6667,-6.6776,-6.6574,-6.6586,-6.7146,-6.7158,-6.7169,-6.7307,0,0,0,0,0,0,-6.5893,-6.5941,-6.6028,-6.6113,-6.6156,-6.6419,-6.629,-6.6295,-6.6366,-6.6354,-6.6443,-6.6451,-6.6453,-6.6647,-6.6681,-6.6792,-6.6597,-6.7137,-6.7152,-6.7165,-6.7292,-6.7321,-6.7346,0,0,0,0,0,-6.5878,-6.6058,-6.6032,-6.6071,-6.6266,-6.6425,-6.645,-6.6451,-6.6375,-6.6461,-6.6496,-6.6448,-6.6759,-6.6666,-6.6703,-6.682,-6.713,-6.7147,-6.7164,-6.728,-6.7316,-6.7345,0,0,0,0,0,0,-6.5983,-6.6069,-6.6042,-6.6255,-6.6334,-6.6411,-6.6521,-6.6488,-6.6589,-6.6574,-6.6568,-6.6589,-6.6777,-6.6816,-6.6712,-6.704,-6.6932,-6.6957,-6.7008,-6.7042,-6.7068,-6.7055,-6.6609,0,0,0,0,0,-6.6031,-6.6155,-6.6223,-6.6404,-6.6445,-6.6477,-6.6546,-6.654,-6.662,-6.6652,-6.6701,-6.6779,-6.6893,-6.6969,-6.7078,-6.7297,-6.7314,-6.7395,-6.7422,-6.7444,-6.7466,-6.7583,-6.762,-6.7229,-6.7228,-6.7228,0,0,-6.6132,-6.6194,-6.6272,-6.6427,-6.6487,-6.6614,-6.6505,-6.6644,-6.6737,-6.6673,-6.6848,-6.6886,-6.6972,-6.7174,-6.7265,-6.7212,-6.7578,-6.7465,-6.7482,-6.7493,-6.7604,-6.7641,-6.7674,-6.724,-6.7238,-6.7236,0,0,-6.638,-6.644,-6.6598,-6.666,-6.6754,-6.6773,-6.681,-6.6893,-6.6916,-6.7093,-6.7047,-6.7156,-6.7354,-6.7418,-6.7476,-6.7747,-6.7705,-6.7782,-6.7922,-6.8036,-6.8067,-6.8094,-6.819,-6.8225,-6.7803,-6.7804,-6.7804,0,-6.6493,-6.6684,-6.6682,-6.6825,-6.6894,-6.6843,-6.7001,-6.7061,-6.7184,-6.7232,-6.7171,-6.7419,-6.7474,-6.7688,-6.7754,-6.7803,-6.7845,-6.7772,-6.8063,-6.809,-6.8115,-6.8207,-6.8243,-6.7812,-6.7811,-6.781,-6.781,0,-6.6818,-6.6951,-6.7066,-6.7189,-6.727,-6.742,-6.7439,-6.7521,-6.7507,-6.7532,-6.771,-6.7774,-6.7894,-6.7944,-6.7932,-6.8157,-6.8122,-6.8063,-6.7954,-6.8162,-6.8247,-6.8282,-6.7825,-6.7822,-6.7819,-6.7817,0,0,-6.7139,-6.7258,-6.7301,-6.7355,-6.7453,-6.7555,-6.77,-6.782,-6.789,-6.7976,-6.8097,-6.8266,-6.8212,-6.8278,-6.8271,-6.8371,-6.8581,-6.8299,-6.8301,-6.8349,-6.8832,-6.8877,-6.8917,-6.8553,-6.856,-6.8565,-6.8825,0,-6.7395,-6.7654,-6.7656,-6.7893,-6.8015,-6.7967,-6.8094,-6.8167,-6.8193,-6.8298,-6.8326,-6.8446,-6.8365,-6.8405,-6.8502,-6.8535,-6.8677,-6.8516,-6.8665,-6.867,-6.8646,-6.8962,-6.901,-6.9252,-6.8858,-6.8864,-6.8868,0,-6.7728,-6.7827,-6.8077,-6.8157,-6.8208,-6.8323,-6.8431,-6.8533,-6.8613,-6.8625,-6.8699,-6.8677,-6.8823,-6.8709,-6.891,-6.88,-6.886,-6.8885,-6.8895,-6.8909,-6.8782,-6.8986,-6.9329,-6.9366,-6.8921,-6.8917,-6.8913,0,-6.7938,-6.8132,-6.8307,-6.8355,-6.8452,-6.8534,-6.8578,-6.8651,-6.8722,-6.8816,-6.8862,-6.8972,-6.9032,-6.9115,-6.9122,-6.9039,-6.9324,-6.9211,-6.9336,-6.9336,-6.9399,-6.9396,-6.9758,-6.9438,-6.9437,-6.9436,-6.9436,0,-6.8224,-6.8379,-6.8403,-6.8511,-6.8682,-6.8681,-6.885,-6.8886,-6.8952,-6.9064,-6.9027,-6.9133,-6.9135,-6.9242,-6.9248,-6.9412,-6.9439,-6.9451,-6.9451,-6.9456,-6.9454,-6.9496,-6.9479,-6.9446,-6.9444,-6.9442,-6.944,0,-6.8487,-6.851,-6.8697,-6.8774,-6.8797,-6.892,-6.8984,-6.9085,-6.9107,-6.9249,-6.9282,-6.9317,-6.9441,-6.9456,-6.9599,-6.9603,-6.9801,-6.9783,-6.9775,-6.9773,-6.9897,-6.9886,-7.03,-7.0354,-6.9998,-7.0001,-7.0004,0,-6.8669,-6.8787,-6.8877,-6.895,-6.8999,-6.9117,-6.919,-6.9192,-6.9269,-6.9369,-6.9458,-6.9578,-6.9675,-6.9875,-6.9911,-7.002,-7.0004,-7.0142,-7.002,-7.0021,-7.0007,-7.0,-7.0011,-7.0166,-7.017,-7.0173,-7.0175,0,-6.8989,-6.8994,-6.9101,-6.9213,-6.9302,-6.9389,-6.9471,-6.9532,-6.9544,-6.9632,-6.976,-6.9835,-6.9982,-7.0101,-7.0209,-7.025,-7.0216,-7.0213,-7.0248,-7.0254,-7.0245,-7.0252,-6.984,-7.0204,-7.0201,-7.0199,-7.0197,-7.0196,-6.9217,-6.932,-6.9399,-6.9519,-6.9581,-6.9659,-6.9758,-6.9793,-6.9899,-7.0021,-7.0015,-7.0155,-7.0229,-7.037,-7.042,-7.0528,-7.0482,-7.0532,-7.0545,-7.0558,-7.0571,-7.0227,-7.0547,-7.0546,-7.0545,-7.0545,-7.0544,0,-6.9535,-6.9583,-6.9694,-6.9811,-6.9905,-6.9865,-6.9953,-7.0034,-7.0158,-7.0232,-7.0328,-7.0473,-7.0588,-7.0633,-7.0746,-7.0823,-7.0809,-7.0852,-7.0847,-7.0857,-7.0605,-7.0564,-7.0862,-7.0861,-7.0861,-7.0861,-7.0861,-7.0861,-6.9712,-6.9884,-6.9898,-7.0098,-7.0144,-7.0283,-7.0337,-7.0407,-7.0466,-7.063,-7.0727,-7.0756,-7.0817,-7.0934,-7.1037,-7.1046,-7.1089,-7.114,-7.1143,-7.0907,-7.0875,-7.0844,-7.0806,-7.1149,-7.115,-7.1386,-7.1388,-7.139]}]]